Terminal Aerodrome Forecast
Issued by NWS Atlanta, GA

Home | Current Version | Previous Version | Text Only | Print | Product List | Glossary On
Versions: 1 2 3 4 5 6 7 8 9 10 11 12 13 14 15 16 17 18 19 20 21 22 23 24 25 26 27 28 29 30 31 32
000
FTAK31 PAJN 262300 RRA
TAFAHN
TAF
PAHN 262342Z 2700/2724 12010G18KT P6SM VCSH SCT015 BKN050
      TEMPO 2700/2704 12010KT 6SM -SHRA BKN010 OVC015
     FM270500 11010KT P6SM -SHRA BKN015 OVC025
     FM271400 10008KT P6SM VCSH SCT015 OVC025
     FM271900 10014KT P6SM VCSH SCT015 OVC035
      AMD LTD TO CLD VIS AND WIND=

USA.gov is the U.S. government's official web portal to all federal, state and local government web resources and services.